Wind_Speed
77 70 69 65 62 60 59 56 52 49 47 45 41 40 35 32 36 35 35 34 32 30 30 29 27 25 23 21 21 22 24 24 26 29 32 37 45 51 54 51 48 45 43 44 47 50 53 55 53 56 61 69 75 76
79 73 71 66 64 61 58 58 54 50 48 45 43 40 36 37 37 35 35 34 33 31 30 29 27 25 22 21 21 22 24 24 28 30 32 36 43 50 54 50 47 43 42 44 46 49 50 50 51 55 61 68 73 76
80 77 73 69 66 62 59 57 54 50 48 45 42 40 40 38 37 36 35 35 34 33 32 29 27 24 23 22 23 23 22 24 28 30 32 37 43 49 51 49 45 42 42 44 48 48 49 48 50 55 61 66 72 74
84 82 75 71 67 63 59 56 55 50 48 44 41 40 39 38 36 36 36 35 34 33 30 29 26 24 23 23 24 22 22 25 28 31 31 37 42 47 47 45 42 41 44 46 46 48 47 47 50 54 59 66 73 75
86 83 76 73 68 64 60 57 55 51 46 43 40 41 39 37 36 36 36 35 34 33 30 28 26 25 24 24 24 21 24 26 28 29 32 37 43 49 44 44 41 42 43 46 49 48 45 46 50 53 58 65 71 73
89 83 81 73 69 65 61 58 55 51 48 45 42 40 39 37 37 36 36 36 35 33 31 28 27 24 24 25 23 22 24 26 28 29 32 38 44 46 42 42 39 43 48 49 48 48 46 46 49 51 57 63 70 74
91 85 79 75 70 67 62 59 57 54 51 47 44 42 41 39 37 37 36 35 36 34 31 28 26 25 25 25 22 24 25 27 27 28 32 38 43 42 40 38 38 43 44 45 47 46 46 47 48 49 55 62 69 73
88 86 83 76 72 68 64 62 60 57 54 49 46 43 42 40 38 38 38 37 36 35 33 29 26 25 27 24 24 26 26 27 27 28 33 37 39 40 37 35 36 40 43 44 46 46 46 47 47 48 54 62 66 72
88 89 83 79 73 69 66 64 61 58 55 52 49 47 46 44 41 41 41 39 38 37 33 28 26 25 26 25 26 26 26 27 27 28 33 34 37 36 34 33 37 40 42 43 49 48 48 47 47 48 53 61 65 71
88 93 86 81 74 71 67 64 61 59 56 53 52 51 48 45 45 44 42 42 42 38 33 28 26 25 26 27 27 28 28 28 28 28 32 31 34 33 34 37 39 42 45 47 51 50 49 47 47 49 54 58 65 70
90 88 88 82 75 71 69 65 63 61 59 57 55 52 46 45 45 45 45 46 43 38 32 25 26 27 27 27 29 30 30 30 29 27 30 32 33 32 36 39 41 45 48 50 52 50 47 47 47 49 52 59 65 71
86 91 90 86 77 72 69 65 64 60 58 54 51 47 47 49 50 50 50 48 41 37 27 22 28 29 28 29 30 30 32 32 29 27 30 34 34 38 41 41 42 45 49 54 50 46 44 45 46 49 53 59 65 73
82 85 90 88 78 72 68 64 61 59 57 54 52 51 52 56 57 58 52 44 35 29 24 30 30 29 29 30 31 32 35 33 31 28 35 34 38 39 40 44 46 48 53 50 48 43 42 44 46 48 54 59 67 72
91 88 87 85 79 73 69 66 64 60 56 56 55 56 59 62 61 55 46 41 36 33 32 31 32 32 31 32 33 35 37 35 29 28 33 33 38 43 49 51 49 54 49 48 43 40 40 43 44 50 54 62 69 72
92 93 85 84 80 74 71 68 64 61 59 58 59 62 63 62 57 50 44 39 37 36 34 35 35 36 33 33 34 36 37 32 28 33 37 40 44 47 52 53 52 52 44 41 39 38 40 43 46 50 58 62 66 71
85 87 86 84 82 78 72 68 65 63 62 63 66 68 64 58 52 47 43 41 42 37 37 38 36 39 36 35 35 37 34 30 32 33 39 44 48 52 56 57 55 47 38 38 36 36 38 42 46 52 56 63 66 68
90 89 89 85 86 79 74 71 67 66 66 70 69 67 64 58 55 54 51 51 46 41 40 41 38 38 39 38 38 38 33 34 36 42 44 48 51 53 56 57 47 38 35 34 34 35 37 41 46 54 56 64 67 67
87 89 85 84 86 78 73 73 73 68 72 74 70 68 66 60 58 56 53 49 47 44 42 41 41 42 41 37 40 40 41 45 47 47 49 53 59 59 51 45 39 35 32 31 32 33 38 42 49 55 59 63 65 66
81 90 89 86 82 84 79 83 70 77 77 74 71 71 69 65 60 57 53 51 47 45 44 44 45 43 38 40 41 41 47 45 42 45 51 59 55 46 41 36 33 32 29 30 29 32 39 44 50 56 58 61 64 59
73 69 77 82 86 87 87 77 84 77 77 75 74 72 69 68 63 57 53 52 49 48 49 48 47 46 44 47 48 50 51 53 53 55 63 60 49 38 33 33 31 29 29 25 27 33 40 46 53 56 57 60 61 48
70 66 82 89 92 90 89 97 85 88 94 86 77 72 70 68 63 60 56 55 55 53 50 50 50 49 50 51 47 46 51 60 61 54 48 46 39 35 32 31 29 27 25 25 29 37 43 47 54 53 55 59 55 38
75 78 85 91 94 95 93 88 99 95 92 87 80 74 72 66 62 61 59 58 56 53 54 54 52 53 54 54 54 58 60 56 53 46 41 39 34 32 31 29 27 26 24 28 33 39 43 48 49 51 56 54 42 30
80 75 89 96 99 99 98 99 96 93 90 85 81 75 71 68 65 62 62 61 59 57 57 54 52 55 56 57 59 63 64 56 50 44 36 32 32 31 29 27 27 24 26 31 36 40 45 46 48 50 54 45 33 25
76 72 94 104 102 104 102 99 91 88 87 82 78 75 71 67 63 59 58 56 56 56 52 54 55 56 55 60 65 59 49 48 42 36 33 32 31 29 28 27 25 25 28 34 37 42 45 47 46 50 44 33 25 23
92 92 101 110 112 106 102 91 83 80 78 73 69 69 68 62 61 60 54 51 51 52 54 53 53 57 60 59 61 60 47 39 35 34 32 32 31 29 26 24 24 27 32 36 38 42 43 43 47 44 33 26 22 22
92 110 109 104 103 96 89 85 81 80 73 68 65 64 59 60 63 60 59 54 51 54 53 59 64 67 68 59 47 38 36 36 34 32 32 32 30 25 22 23 27 30 34 36 38 40 41 43 43 34 26 21 20 23
103 106 105 101 97 90 89 86 77 74 75 71 68 66 62 65 67 61 60 60 62 64 67 68 68 61 56 46 39 38 35 33 33 33 31 27 22 21 24 27 30 33 35 38 38 40 41 40 33 25 20 19 23 24
100 93 91 90 84 80 83 79 80 75 72 74 74 74 70 67 59 56 64 71 72 73 68 62 55 50 41 38 37 34 33 32 31 27 21 19 21 25 27 30 33 35 36 36 38 39 36 31 24 18 18 18 22 23
97 95 90 89 88 84 80 77 77 68 65 70 74 73 74 74 72 77 73 71 69 61 47 41 38 38 38 35 32 33 30 25 22 20 21 22 24 27 30 33 35 35 36 35 33 29 25 20 16 16 15 17 17 19
95 90 83 90 87 85 82 79 76 75 78 77 81 80 77 71 63 54 45 42 38 35 37 39 39 36 33 34 33 27 21 18 19 21 22 25 27 30 33 35 35 33 30 26 21 17 15 15 16 14 14 13 14 17
71 83 86 83 72 70 68 63 55 55 59 61 63 56 46 45 43 40 35 35 38 39 37 35 32 33 34 29 23 18 18 19 21 23 25 28 30 32 33 31 27 23 20 19 18 15 13 13 15 18 16 13 14 14
43 48 57 63 63 62 57 50 46 41 37 34 33 31 31 32 35 35 38 40 40 37 36 36 37 30 24 19 17 17 19 21 23 25 27 29 31 29 23 18 16 13 14 15 15 17 20 18 14 14 16 19 17 15
31 33 35 34 34 35 38 39 39 35 34 34 37 38 40 39 37 36 38 38 38 38 37 33 24 18 17 17 17 19 20 22 23 25 27 27 24 18 15 14 14 16 17 17 17 17 18 19 21 19 16 16 20 20
Wind_Direction
204 204 207 207 209 210 212 214 215 217 219 220 222 227 229 236 241 240 240 239 239 239 242 247 251 256 263 271 280 289 297 311 320 326 334 338 346 348 347 348 348 348 343 340 342 342 343 345 346 351 354 353 350 348
203 202 205 206 209 210 214 213 213 216 218 219 221 226 232 235 237 239 238 237 237 238 242 246 249 253 260 269 279 288 298 313 321 327 334 340 346 345 344 345 346 347 342 340 341 339 340 341 345 353 353 354 348 349
202 203 204 206 208 210 212 214 213 215 219 219 222 225 230 232 235 238 235 235 236 238 240 244 249 253 260 269 278 288 303 314 319 328 333 340 344 342 344 343 341 346 342 341 338 337 338 341 347 352 353 351 346 349
202 205 205 205 208 209 210 214 214 213 218 220 222 225 227 229 232 235 234 235 236 240 242 243 247 253 261 269 278 290 305 310 318 327 333 340 341 340 344 339 338 340 338 338 337 336 336 342 348 351 352 351 346 349
202 203 205 206 207 209 209 212 213 214 216 219 223 225 227 228 232 234 236 236 236 238 242 244 248 254 261 270 280 294 302 310 318 328 331 336 339 338 343 339 344 341 339 339 335 333 335 343 347 351 352 351 346 349
201 202 204 205 207 208 208 210 211 212 214 216 221 225 225 227 229 234 236 237 240 240 241 243 248 254 262 271 282 293 299 308 318 328 327 333 336 335 341 342 341 338 336 336 333 334 338 342 346 350 352 350 346 347
201 201 203 205 207 207 207 209 210 211 213 215 216 222 223 226 229 234 238 239 240 241 241 243 247 254 262 270 282 288 298 308 317 324 325 331 334 332 342 343 343 345 344 344 340 337 338 341 344 349 349 348 345 345
199 200 203 204 206 207 207 209 211 211 212 214 216 218 222 224 228 234 237 239 241 242 242 244 248 255 262 272 279 286 298 307 314 323 325 331 331 329 339 338 339 345 350 350 345 339 337 338 342 347 347 346 345 343
204 202 202 205 205 207 208 209 211 213 213 214 216 217 219 221 228 233 236 240 243 244 244 245 249 254 265 272 278 289 298 306 312 317 325 329 325 331 332 338 339 342 344 347 349 343 337 336 339 344 347 346 344 341
205 204 202 204 205 207 208 210 211 214 213 215 218 220 220 222 227 233 236 239 242 243 244 246 251 255 263 269 279 287 295 301 308 315 321 326 319 326 322 327 333 337 341 346 349 343 335 333 336 342 346 346 343 339
203 204 201 202 203 206 209 210 212 214 215 215 218 221 222 225 230 234 237 239 242 245 244 244 250 255 262 271 279 287 293 297 304 311 316 321 324 324 322 325 331 340 341 342 343 341 330 330 334 340 346 342 343 339
205 207 204 203 203 206 209 211 213 215 218 220 220 222 225 229 232 235 237 240 243 245 246 245 247 254 264 272 280 286 289 294 300 307 318 320 325 329 333 331 328 328 332 337 337 332 325 327 333 340 340 344 341 337
204 208 208 203 204 204 208 212 214 216 219 220 221 222 225 228 231 234 239 241 250 250 242 243 250 257 265 272 278 284 288 294 296 306 314 318 324 328 331 336 337 336 331 333 331 324 323 326 331 336 341 341 339 333
205 206 206 205 206 205 207 211 214 216 216 219 222 225 228 232 233 236 240 241 243 242 244 249 253 258 266 272 280 283 289 297 304 307 309 319 326 331 333 330 326 332 333 331 323 320 322 323 330 334 338 339 337 330
200 203 206 205 206 206 208 211 213 213 215 217 222 227 230 234 236 236 238 242 243 244 248 251 257 260 266 273 277 286 290 296 300 299 306 311 318 323 326 329 326 328 327 322 316 317 318 322 327 333 337 336 334 328
200 204 206 206 206 206 208 210 213 215 217 221 224 228 232 235 239 239 241 243 245 248 249 254 260 261 266 269 277 286 288 294 295 309 316 317 315 314 318 323 323 326 320 312 311 312 315 321 328 331 336 334 327 325
197 204 206 208 207 205 208 211 213 215 218 222 227 229 233 234 235 239 241 245 246 249 249 253 261 264 268 274 283 289 284 284 293 304 310 315 318 318 316 321 321 314 307 306 305 308 314 320 327 330 332 329 324 323
199 201 207 207 207 202 206 209 213 217 221 226 227 229 231 233 235 238 241 245 249 252 253 259 261 264 272 283 289 288 281 285 289 296 301 305 311 315 320 322 315 305 302 299 303 308 313 323 327 330 328 325 321 321
198 199 206 210 214 208 203 211 208 217 220 224 228 231 231 232 235 239 242 246 250 253 257 262 263 269 278 288 286 275 281 296 300 302 302 305 310 314 316 312 304 298 292 297 300 307 317 324 326 326 326 320 317 320
201 204 207 213 210 205 208 207 213 217 223 226 230 232 234 234 234 237 244 248 250 254 259 263 271 272 277 284 281 279 285 293 299 298 299 301 308 307 305 301 292 286 288 291 300 313 318 322 323 324 322 315 315 319
202 210 210 210 207 209 202 208 213 209 218 225 228 231 237 237 238 238 240 245 249 254 258 264 271 272 278 282 284 286 295 299 303 300 297 300 303 300 295 288 280 280 287 296 306 314 316 320 321 323 314 311 314 315
202 208 211 211 210 211 211 211 210 220 223 228 230 233 237 240 242 244 246 246 251 255 260 267 272 271 279 279 282 289 296 297 293 290 295 296 290 289 281 276 271 280 287 300 310 313 317 321 325 319 308 310 311 305
207 208 212 210 208 210 213 214 217 223 227 233 235 236 240 244 245 248 249 250 254 259 263 270 274 277 280 278 282 289 292 291 289 291 280 277 280 277 270 264 272 282 296 304 309 312 319 325 321 309 305 308 303 292
209 218 214 207 209 212 216 219 225 228 232 235 237 238 242 242 245 247 252 254 257 263 267 270 272 278 280 283 284 284 280 285 281 269 267 271 269 260 257 266 276 290 300 305 311 318 323 323 312 300 302 300 289 276
205 211 214 212 210 217 219 223 228 232 234 233 236 242 242 243 246 249 249 254 263 264 264 263 273 282 283 283 282 283 278 267 258 260 262 260 254 253 262 273 286 297 303 307 313 319 321 313 300 297 295 286 270 259
213 216 215 218 216 218 221 227 230 233 230 233 235 235 241 248 247 249 252 258 263 264 265 272 275 274 277 276 270 261 253 251 250 253 249 247 250 259 271 283 293 298 304 308 311 312 307 297 293 291 283 269 254 244
213 217 218 218 222 227 230 229 230 232 235 235 236 241 247 249 249 252 256 260 263 266 265 267 271 268 266 260 250 244 242 243 240 241 244 250 259 269 283 292 299 302 305 310 308 300 293 289 284 278 267 253 244 234
212 218 220 222 224 225 228 232 231 232 238 244 243 245 248 247 252 259 262 263 262 262 261 261 263 260 255 246 241 237 229 230 235 242 250 260 271 285 292 297 301 303 301 297 291 287 284 279 273 264 253 246 242 231
213 215 219 222 225 227 223 226 234 239 243 244 245 248 249 247 250 252 251 257 260 258 257 250 249 242 238 233 224 220 225 232 242 251 263 271 283 289 292 294 293 290 284 282 280 277 273 270 264 258 255 250 245 237
215 215 215 217 220 224 227 229 230 232 231 234 237 241 244 247 247 243 244 246 253 242 230 225 224 222 218 215 217 223 234 245 256 264 272 280 287 290 287 283 280 277 278 278 280 279 273 266 261 261 260 255 251 242
217 221 221 222 223 225 226 227 224 228 230 235 236 238 240 244 245 242 234 228 221 217 216 218 215 210 210 216 224 235 248 258 265 272 277 282 284 281 276 273 273 275 278 282 281 282 283 272 263 256 257 260 259 260
209 215 221 227 230 230 230 228 223 224 233 242 238 237 232 222 213 214 211 209 205 203 203 204 205 207 216 228 241 252 259 265 271 277 279 277 274 271 269 271 275 281 289 288 287 274 269 272 276 269 258 250 252 256
190 197 201 206 213 221 227 230 232 225 212 211 203 205 199 197 198 199 200 197 194 198 199 202 207 220 235 249 258 264 269 273 275 275 272 268 266 266 266 276 291 297 298 299 302 301 287 276 266 265 269 262 249 248
Height
5686 5700 5714 5725 5736 5745 5756 5766 5777 5786 5794 5800 5807 5814 5819 5825 5831 5836 5839 5844 5848 5851 5854 5857 5860 5862 5864 5865 5866 5865 5865 5862 5861 5857 5854 5848 5842 5835 5827 5819 5812 5806 5798 5792 5784 5775 5768 5757 5749 5741 5730 5716 5702 5688
5676 5689 5704 5715 5726 5736 5747 5758 5768 5778 5786 5792 5800 5806 5812 5819 5824 5829 5833 5837 5841 5845 5848 5851 5853 5856 5858 5860 5860 5859 5859 5858 5855 5852 5849 5844 5836 5830 5822 5815 5808 5802 5795 5788 5781 5772 5763 5754 5745 5736 5725 5714 5700 5688
5665 5680 5694 5705 5717 5728 5738 5749 5759 5769 5778 5785 5792 5798 5805 5812 5817 5822 5825 5830 5834 5837 5841 5844 5847 5851 5853 5854 5854 5854 5853 5853 5849 5847 5843 5839 5833 5826 5818 5810 5803 5798 5791 5784 5776 5768 5759 5751 5743 5733 5721 5710 5697 5685
5653 5670 5684 5696 5707 5718 5729 5741 5751 5760 5770 5777 5784 5791 5797 5804 5809 5814 5819 5823 5827 5831 5834 5838 5841 5845 5847 5848 5848 5848 5848 5846 5844 5841 5838 5833 5827 5821 5815 5807 5800 5794 5787 5780 5772 5764 5755 5747 5739 5729 5719 5708 5693 5682
5643 5659 5673 5686 5698 5710 5720 5732 5743 5753 5761 5769 5777 5784 5790 5796 5802 5807 5812 5816 5820 5825 5828 5832 5835 5839 5841 5841 5841 5842 5842 5840 5839 5836 5832 5828 5822 5815 5809 5802 5796 5790 5784 5777 5769 5760 5753 5745 5737 5727 5719 5707 5693 5683
5631 5648 5663 5676 5688 5700 5711 5723 5733 5743 5752 5760 5769 5777 5783 5789 5795 5800 5804 5809 5812 5817 5822 5826 5830 5833 5834 5834 5835 5836 5836 5834 5833 5830 5826 5822 5816 5810 5805 5799 5793 5787 5781 5774 5766 5758 5751 5742 5734 5726 5716 5705 5692 5680
5621 5637 5652 5666 5679 5691 5703 5714 5723 5733 5743 5752 5759 5768 5775 5781 5787 5793 5799 5802 5805 5810 5814 5819 5824 5827 5828 5827 5830 5829 5829 5828 5826 5824 5820 5816 5809 5805 5801 5795 5790 5784 5777 5770 5762 5754 5747 5739 5730 5722 5713 5701 5688 5678
5610 5626 5642 5656 5669 5682 5693 5705 5714 5724 5734 5743 5751 5759 5767 5773 5779 5785 5789 5793 5797 5802 5808 5814 5819 5821 5820 5821 5822 5822 5822 5821 5820 5817 5814 5810 5804 5799 5797 5792 5787 5781 5774 5766 5758 5751 5743 5735 5726 5718 5709 5698 5686 5674
5600 5616 5631 5646 5659 5672 5684 5694 5706 5716 5725 5734 5742 5748 5754 5762 5770 5775 5779 5784 5789 5796 5802 5808 5812 5813 5812 5813 5813 5815 5815 5814 5814 5811 5808 5805 5798 5795 5791 5786 5782 5776 5769 5762 5754 5746 5739 5731 5723 5714 5705 5696 5684 5672
5591 5605 5620 5635 5648 5662 5674 5685 5697 5707 5714 5723 5732 5738 5746 5755 5760 5765 5770 5775 5780 5787 5795 5802 5804 5805 5806 5805 5806 5808 5807 5807 5805 5804 5801 5798 5792 5790 5785 5781 5776 5770 5763 5755 5749 5741 5734 5726 5719 5711 5702 5695 5684 5669
5582 5595 5609 5623 5638 5652 5664 5676 5686 5696 5704 5710 5719 5731 5743 5746 5750 5754 5758 5762 5771 5779 5788 5795 5795 5795 5796 5798 5798 5798 5798 5798 5798 5797 5794 5790 5787 5784 5779 5774 5769 5764 5757 5750 5743 5736 5729 5721 5713 5706 5700 5691 5679 5667
5571 5584 5599 5614 5628 5642 5655 5667 5677 5688 5698 5707 5717 5728 5733 5734 5737 5740 5743 5751 5765 5772 5783 5786 5784 5786 5788 5788 5788 5790 5790 5789 5789 5789 5786 5781 5780 5776 5771 5767 5762 5758 5751 5744 5738 5729 5722 5715 5709 5703 5695 5685 5674 5661
5562 5576 5591 5605 5620 5633 5646 5660 5671 5679 5688 5699 5705 5713 5719 5719 5721 5724 5733 5748 5763 5768 5772 5772 5776 5777 5779 5780 5780 5780 5779 5780 5779 5780 5776 5776 5772 5768 5764 5760 5755 5750 5744 5737 5730 5723 5716 5711 5705 5697 5690 5680 5669 5658
5554 5567 5584 5598 5611 5624 5637 5649 5660 5670 5680 5687 5693 5698 5701 5703 5709 5718 5734 5743 5751 5755 5758 5762 5764 5766 5768 5768 5769 5769 5770 5770 5771 5771 5768 5766 5763 5759 5755 5751 5747 5742 5736 5729 5722 5716 5710 5705 5700 5692 5684 5674 5663 5653
5547 5560 5574 5589 5601 5614 5628 5641 5650 5659 5667 5673 5679 5681 5686 5695 5705 5716 5724 5732 5739 5743 5747 5749 5752 5755 5757 5758 5759 5760 5760 5762 5762 5759 5758 5755 5751 5748 5744 5741 5737 5732 5726 5720 5714 5708 5704 5700 5694 5687 5678 5669 5659 5648
5536 5549 5562 5579 5591 5604 5617 5628 5638 5647 5654 5661 5665 5668 5676 5687 5697 5708 5716 5722 5726 5731 5735 5737 5740 5743 5747 5747 5748 5749 5751 5752 5749 5747 5745 5743 5740 5737 5734 5731 5726 5721 5716 5711 5707 5702 5698 5694 5688 5680 5671 5663 5651 5642
5522 5538 5555 5569 5581 5593 5605 5616 5627 5634 5640 5641 5649 5659 5667 5679 5687 5694 5701 5706 5712 5718 5723 5724 5728 5731 5732 5734 5737 5738 5740 5738 5736 5734 5732 5730 5728 5726 5724 5720 5714 5709 5705 5702 5699 5696 5692 5687 5680 5673 5665 5656 5646 5635
5521 5534 5549 5560 5569 5582 5593 5600 5610 5621 5626 5628 5638 5647 5654 5666 5675 5680 5687 5694 5701 5705 5709 5712 5714 5716 5720 5723 5724 5725 5724 5725 5723 5721 5719 5718 5717 5715 5710 5706 5703 5699 5697 5694 5692 5688 5685 5680 5673 5665 5657 5647 5637 5628
5513 5528 5540 5553 5562 5570 5575 5586 5596 5604 5608 5614 5627 5635 5643 5651 5661 5669 5674 5680 5687 5691 5694 5698 5700 5705 5709 5710 5711 5713 5711 5711 5709 5708 5708 5707 5705 5702 5697 5694 5691 5689 5687 5687 5685 5681 5677 5672 5665 5658 5648 5637 5627 5621
5510 5524 5536 5544 5552 5553 5561 5571 5584 5593 5595 5606 5617 5625 5632 5639 5649 5658 5663 5668 5673 5677 5679 5683 5689 5693 5695 5697 5698 5698 5698 5697 5697 5696 5696 5695 5692 5689 5685 5682 5680 5679 5679 5679 5677 5673 5669 5663 5656 5648 5638 5627 5618 5614
5502 5511 5522 5529 5535 5541 5550 5558 5567 5576 5587 5597 5607 5613 5618 5627 5635 5644 5651 5657 5660 5664 5669 5673 5677 5679 5682 5682 5682 5683 5682 5682 5681 5682 5681 5680 5679 5676 5673 5671 5670 5670 5671 5671 5668 5664 5659 5653 5647 5638 5628 5618 5611 5608
5484 5500 5514 5516 5520 5524 5534 5542 5556 5567 5578 5586 5594 5603 5608 5616 5625 5632 5640 5644 5648 5652 5657 5660 5664 5666 5667 5667 5667 5668 5668 5668 5668 5668 5667 5667 5665 5663 5661 5661 5662 5662 5663 5661 5657 5654 5649 5644 5636 5626 5616 5609 5605 5602
5484 5494 5498 5494 5496 5502 5512 5531 5544 5555 5565 5574 5583 5591 5598 5606 5613 5619 5624 5630 5634 5641 5644 5647 5650 5650 5651 5652 5652 5653 5654 5654 5654 5655 5655 5654 5652 5651 5651 5652 5653 5654 5653 5649 5647 5644 5639 5631 5622 5613 5606 5601 5598 5597
5470 5473 5471 5471 5472 5482 5502 5513 5528 5542 5552 5563 5570 5577 5585 5591 5598 5603 5609 5616 5623 5626 5629 5633 5635 5636 5637 5637 5637 5638 5639 5640 5640 5641 5642 5641 5640 5641 5642 5644 5645 5643 5641 5639 5636 5633 5627 5619 5609 5602 5597 5593 5592 5591
5449 5448 5446 5443 5455 5475 5491 5507 5516 5528 5540 5550 5556 5563 5571 5578 5585 5592 5599 5606 5609 5613 5616 5618 5619 5620 5621 5622 5623 5626 5626 5627 5628 5629 5627 5628 5630 5632 5633 5634 5633 5631 5630 5628 5624 5619 5613 5605 5597 5592 5587 5586 5585 5585
5425 5417 5424 5437 5453 5470 5484 5497 5508 5517 5528 5535 5543 5552 5559 5566 5573 5580 5588 5593 5598 5601 5602 5604 5605 5606 5608 5609 5610 5611 5613 5616 5616 5616 5617 5618 5620 5621 5622 5622 5622 5621 5618 5615 5610 5604 5598 5590 5586 5582 5580 5579 5579 5580
5401 5409 5424 5439 5454 5470 5483 5493 5501 5509 5516 5524 5533 5541 5548 5554 5561 5568 5574 5580 5584 5587 5587 5588 5591 5592 5594 5595 5597 5600 5602 5603 5605 5607 5607 5609 5611 5612 5613 5611 5610 5609 5605 5601 5595 5590 5585 5580 5577 5574 5574 5573 5574 5574
5394 5408 5424 5439 5452 5466 5473 5481 5488 5496 5506 5516 5523 5526 5536 5546 5551 5555 5561 5565 5567 5569 5571 5574 5577 5580 5581 5582 5586 5589 5591 5592 5594 5596 5599 5601 5602 5602 5600 5599 5597 5595 5591 5586 5582 5577 5573 5570 5567 5567 5567 5567 5568 5568
5393 5407 5418 5427 5439 5451 5457 5467 5478 5487 5497 5504 5512 5516 5525 5532 5539 5541 5543 5548 5553 5557 5559 5562 5564 5566 5569 5572 5575 5579 5581 5583 5587 5588 5590 5591 5590 5589 5587 5586 5584 5581 5577 5573 5570 5567 5565 5562 5561 5561 5561 5561 5560 5561
5392 5402 5409 5420 5431 5441 5452 5462 5470 5477 5482 5491 5498 5505 5511 5516 5520 5525 5531 5536 5539 5543 5545 5547 5550 5554 5558 5563 5566 5569 5572 5575 5578 5579 5580 5579 5578 5577 5575 5574 5571 5568 5565 5562 5560 5558 5556 5556 5556 5556 5556 5555 5555 5556
5389 5400 5407 5417 5424 5432 5440 5448 5452 5459 5466 5473 5482 5490 5494 5500 5505 5512 5515 5518 5522 5528 5533 5537 5541 5546 5551 5555 5558 5561 5564 5566 5567 5567 5567 5567 5567 5566 5564 5562 5560 5557 5556 5554 5553 5553 5552 5551 5551 5551 5551 5551 5551 5552
5387 5394 5402 5409 5417 5423 5430 5437 5444 5450 5456 5462 5470 5477 5482 5487 5492 5497 5501 5507 5512 5517 5523 5529 5535 5539 5543 5547 5550 5553 5554 5555 5555 5556 5556 5556 5556 5554 5553 5552 5551 5550 5549 5549 5547 5547 5547 5547 5546 5544 5544 5545 5546 5546
5381 5387 5393 5402 5408 5414 5420 5429 5434 5440 5447 5453 5459 5465 5471 5478 5485 5490 5494 5500 5506 5513 5518 5523 5528 5532 5535 5539 5541 5542 5543 5544 5544 5545 5546 5546 5547 5546 5546 5545 5544 5544 5543 5542 5541 5541 5540 5539 5539 5538 5538 5538 5538 5540